ARIANE 2 DEB, 28570

Orbit data source: Space-Track

ARIANE 2 DEB, 28570 is space debris in HEO originally from a launch on Fri, 27 Jan 1989 UTC launched from the French Guiana (FRGUI). Debris objects in space refer to the collection of defunct objects orbiting the Earth. Examples of debris include non-operational satellites, rocket bodies, and fragments generated from explosions, collisions, or faulty payload assembly.

Loading next visibility...
Identifier
28570, 1989-006AM
Orbit
HEO
Last TLE update
5 days ago
Origin
Manufacturer
EADS/LV
Mission
Spacecraft
Bus & Motor
Unknown
Mass
Unknown
Launch date (UTC)
1989-01-27 (36 years ago)
Launch vehicle
Unknown
Launch site
French Guiana (FRGUI)
Object type
Payload
Rocket body
Debris
Shape & HBR
Unknown
Radar Cross Section
Medium (>0.1 m² and <1 m²)

Expand to show TLE details & history

TLE from 5 days ago
0 ARIANE 2 DEB
1 28570U 89006AM  25177.45374235 -.00000534  00000-0 -89270-2 0  9992
2 28570   7.2243 283.2624 7093747  48.4151 320.5686  2.29677117181146
Epoch: 2025-06-26T10:53Z
TLE epoch observation values (Epoch: 2025-06-26T10:53:23.339Z)
Latitude
-7.12808°
Longitude
126.5781°
Altitude
14,644.348 km
Speed
4.636 km/s
True Right ascension
13h 38m 59s
True Declination
-7° 06' 50"
Sunlit
Object was in daylight at epoch
Visualization orbit readout
Latitude
-2.60389°
Longitude
44.35521°
Altitude
24,515.825 km
Speed
3.062 km/s
Apparent Right ascension
08h 15m 13s
Apparent Declination
-8° 42' 51"
Sunlit
Object is in daylight
Visualization observer readout
Local Sidereal Time
20:47:42
Azimuth
15.26° NNE
Elevation
-57.967°
Doppler factor
1
Orbital elements
Apogee altitude
35,109.446 km
Perigee altitude
675.519 km
Semi-major axis
24,270.62 km
Eccentricity
0.70937
Inclination
7.2243°
RAAN
283.2624°
Arg. of periapsis
48.4151°
True anomaly
Unknown
Mean anomaly
320.5686°
Eccentric anomaly
Unknown
Mean motion
0.57401 °/min
Orbital period
627.16 mins
BSTAR
-0.008927
Loading maneuver chart data...
Loading SW <> Apogee altitude chart data...
Loading historical data...
Loading historical data...
Loading historical data...
Loading historical data...
Loading historical data...
Loading historical data...
Loading historical data...

ARIANE 2 DEB Visibility forecast

Observer location: undefined°, undefined°

Span
Click to sort rows by Start time (UTC) header in descending order
Start Az.
Max El. time (UTC)
Max El. Az.
Max El.
End time (UTC)
End Az.
577 mins2025-07-01 17:48:28.136Z223.416° SW2025-07-01 21:53:28.136Z175.02° S31.448°2025-07-02 03:25:28.136Z153.639° SSE
|